Location: Fluertsh�userhof
(48.7537°N, 10.3850°E)
Time: 02:37:37
(UTC+00:00)

Cosmos 1626 - Pass Details

Date: 23 January 2021
Orbit: 490 x 493 km, 82.5° (Epoch: 07 March)

Event Time Altitude Azimuth Distance (km) Brightness Sun altitude
Rises 17:05:18 0° 218° (SW) 2,566 6.7 -10.4°
Reaches altitude 10° 17:07:41 10° 232° (SW) 1,689 6.0 -10.7°
Maximum altitude 17:10:46 25° 289° (WNW) 1,041 4.4 -11.2°
Drops below altitude 10° 17:13:53 10° 346° (NNW) 1,699 4.8 -11.7°
Sets 17:16:17 0° 360° (N) 2,586 5.6 -12.1°
